Regional Weather Roundup
Issued by NWS Boston, MA

Home | Current Version | Previous Version | Text Only | Print | Product List | Glossary On
Versions: 1 2 3 4 5 6 7 8 9 10 11 12 13 14 15 16 17 18 19 20 21 22 23 24 25 26 27
000
ASUS41 KBOX 310910
RWRBOX

REGIONAL WEATHER ROUNDUP
NATIONAL WEATHER SERVICE TAUNTON MA
500 AM EDT SUN JUL 31 2016

NOTE:  "FAIR" INDICATES FEW OR NO CLOUDS BELOW 12,000 FEET WITH NO
SIGNIFICANT WEATHER AND/OR OBSTRUCTIONS TO VISIBILITY.

MAZALL-311000-
EASTERN MASSACHUSETTS

CITY           SKY/WX    TMP DP  RH WIND       PRES   REMARKS
BOSTON         CLOUDY    74  68  81 N6        30.03S
BEVERLY        CLOUDY    69  69 100 N5        30.03F
LAWRENCE       CLOUDY    70  63  78 N6        30.06S
BEDFORD        MOCLDY    69  66  90 CALM      30.03S
BLUE HILL        N/A     70  69  97 SW3       30.04F
NORWOOD        CLOUDY    72  70  93 CALM      30.02F FOG
MARSHFIELD     CLOUDY    73  72  94 CALM      30.03S
PLYMOUTH       CLOUDY    71  69  93 CALM      30.04F
TAUNTON        CLOUDY    71  69  93 CALM      30.02F
NEW BEDFORD    CLOUDY    72  69  90 CALM      30.03S
$$

MAZALL-311000-
CAPE COD AND THE ISLANDS

CITY           SKY/WX    TMP DP  RH WIND       PRES   REMARKS
FALMOUTH       MOCLDY    70  68  94 MISG        N/A
HYANNIS        CLOUDY    71  68  90 SE5       30.03F
CHATHAM        CLOUDY    64  64 100 VRB3      30.06F
PROVINCETOWN   CLOUDY    72  70  93 SE5       30.04F
NANTUCKET      CLOUDY    65  65 100 SE7       30.04F
MARTHAS VNYRD  CLOUDY    69  68  96 CALM      30.04F
$$

MAZALL-311000-
CENTRAL AND WESTERN MASSACHUSETTS

CITY           SKY/WX    TMP DP  RH WIND       PRES   REMARKS
WORCESTER      CLOUDY    67  64  90 N7        30.07R
FITCHBURG      CLOUDY    70  62  76 NW5       30.06S
ORANGE         CLOUDY    67  64  90 CALM      30.06S
SPRINGFIELD    CLOUDY    70  68  94 N5        30.03R
WESTFIELD      LGT RAIN  69  66  90 N8        30.04R
NORTH ADAMS    LGT RAIN  65  62  90 CALM      30.05F
PITTSFIELD     CLOUDY    65  63  93 CALM      30.06R
$$

RIZALL-311000-
RHODE ISLAND

CITY           SKY/WX    TMP DP  RH WIND       PRES   REMARKS
PROVIDENCE     CLOUDY    73  70  90 CALM      30.03S
NEWPORT        CLOUDY    71  70  96 SE3       30.03S
BLOCK ISLAND   CLOUDY    71  70  96 SE5       30.03S
SMITHFIELD     CLOUDY    70  68  94 CALM      30.04S
WESTERLY       CLOUDY    73  69  87 E5        30.03S
$$

CTZALL-311000-
CONNECTICUT

CITY           SKY/WX    TMP DP  RH WIND       PRES   REMARKS
BRADLEY INTL   CLOUDY    71  69  93 N5        30.03S FOG
HARTFORD       CLOUDY    74  71  91 N5        30.01S
BRIDGEPORT     CLOUDY    75  71  87 SE8       30.00R
DANBURY        CLOUDY    71  69  93 E6        30.02S
GROTON         CLOUDY    74  71  91 E6        30.02R
NEW HAVEN      CLOUDY    74  72  93 E3        30.02R
CHESTER        CLOUDY    72  72 100 CALM      30.04R FOG
MERIDEN        CLOUDY    73  70  90 CALM      30.02R
WILLIMANTIC    CLOUDY    72  71  97 CALM      30.03S
OXFORD           N/A     72  66  83 E3        30.05R
$$

MEZ002-015-021-024-NHZ003-005-008-011-012-014-VTZ005-008-311000-
NORTHERN NEW ENGLAND

CITY           SKY/WX    TMP DP  RH WIND       PRES   REMARKS
PORTLAND ME    CLOUDY    68  55  63 N6        30.07S
BANGOR ME      CLOUDY    60  55  83 CALM      30.09S
CONCORD NH     LGT RAIN  67  62  84 E3        30.08R
MANCHESTER NH  CLOUDY    68  62  81 N10       30.04F
NASHUA NH      CLOUDY    68  62  81 NW6       30.05F
PORTSMOUTH NH  CLOUDY    68  62  80 N2        30.05R
JAFFREY NH     CLOUDY    64  62  93 CALM      30.09S
KEENE NH       LGT RAIN  65  62  90 NE5       30.07S
BURLINGTON VT  FAIR      59  54  83 E5        30.08F
MT. WASHINGTON PTCLDY    46  43  87 SW12        N/A
$$

NYZ052-076-311000-
EASTERN NEW YORK

CITY           SKY/WX    TMP DP  RH WIND       PRES   REMARKS
ALBANY         LGT RAIN  64  61  90 N6        30.04S
NEW YORK CITY  CLOUDY    76  72  87 SE8       29.98S
$$

ANZALL-311000-
MARINE OBSERVATIONS

STATION/POSITION TIME  TEMP    WIND        PRES    VSBY  WAVE
                       AIR SEA DIR/SP/G                  HT/PER
                 (UTC) (F)     (DEG/KT/KT) (MB)    (MI)  (FT/S)
BOSTON BUOY      0850   71 72  100/  6/  8 1017.0F         1/ 8
BUZZARDS BAY     0800   70     130/ 10/ 11 1017.2F
NANTUCKET SOUND  0850   70 74  140/  6/  6 1016.9F         0
MASS BAY-STELLWA 0804   70 69  170/  6/  8 1017.1F  1 7/8  1/ 7
ISLE OF SHOALS   0900   69      40/ 12/ 13 1017.2F
S OF BLOCK IS    0825      72                N/A           2/ 6
$$

......................KEY.........................
  SKY/WX - SKY CONDITION/PRESENT WEATHER
  TMP    - TEMPERATURE IN FAHRENHEIT
  DWPT   - DEWPOINT IN FAHRENHEIT
  RH     - RELATIVE HUMIDITY IN PERCENT
  WIND   - DIRECTION AND SPEED IN MPH
  PRES   - MEAN SEA LEVEL PRESSURE IN INCHES OF HG
  WCI    - WIND CHILL INDEX
  VSB    - VISIBILITY IN MILES
  HX     - HEAT INDEX
  TC     - TEMPERATURE IN CELSIUS
  VRB    - VARIABLE WIND DIRECTION
  N/A    - NOT AVAILABLE




USA.gov is the U.S. government's official web portal to all federal, state and local government web resources and services.